Flag for Canada Weather past 2 weeks in Arviat, Nunavut Territory, Canada

Now
34 °F

Drizzle. Low clouds.


Feels Like: 22 °F
Forecast: 30 / 34 °F
Wind: 20 mph from East

Location: Arviat Airport

Current Time: Oct 23, 2014 at 9:42:00 AM

Latest Report: Oct 23, 2014 at 9:00 AM


Visibility: 8 mi

Pressure: 30.08 "Hg

Humidity: 93%

Dew point: 32 °F

Location of ArviatLocation

Historic Weather in Arviat — Graph

°F

Arviat temperature yesterday

Maximum temperature yesterday: 36 °F (at 12:00 PM)
Minimum temperature yesterday: 28 °F (at 9:58 PM)
Average temperature yesterday: 33 °F

Past Weeks' High & Low Weather Summary

 TemperatureHumidityPressure
High37 °F (Oct 8, 9:00 PM)100% (Oct 8, 8:00 AM)30.42 "Hg (Oct 8, 8:00 AM)
Low14 °F (Oct 20, 8:00 AM)75% (Oct 13, 6:00 PM)29.46 "Hg (Oct 12, 4:00 AM)
Average29 °F93%29.92 "Hg
* Reported Oct 8 8:00 AM — Oct 23 8:00 AM, Arviat, Weather by CustomWeather, © 2014

Note: Actual official high and low records may vary slightly from our data, if they occured in-between our weather recording intervals... More about our weather records

Advertising

Arviat weather history for previous 24 hours

 ConditionsComfort  
Time TempWeatherWind HumidityBarometerVisibility
8:00 AM
Oct 23
34 °FMostly cloudy.23 mph93%30.08 "Hg8 mi
7:00 AM34 °FFog.15 mph93%30.07 "Hg10 mi
6:03 AM34 °FPartly cloudy.16 mph93%30.05 "Hg9 mi
5:00 AM34 °FMostly cloudy.15 mph100%30.05 "Hg9 mi
4:56 AM34 °FMostly cloudy.16 mph100%30.05 "Hg9 mi
4:00 AM32 °FIce fog.7 mph100%30.05 "Hg1 mi
3:00 AM30 °FIce fog.10 mph100%30.03 "Hg1 mi
2:00 AM30 °FOvercast.9 mph93%30.02 "Hg9 mi
1:00 AM28 °FOvercast.13 mph100%30.00 "Hg9 mi
12:00 AM28 °FOvercast.12 mph100%29.98 "Hg9 mi
11:00 PM
Oct 22
28 °FIce fog.12 mph100%29.98 "Hg1 mi
10:04 PM28 °FLight freezing rain. Ice fog.12 mph100%29.96 "Hg1 mi
9:58 PM28 °FLight mixture of precip. Ice fog.10 mph100%29.96 "Hg1 mi
9:02 PM30 °FIce fog.12 mph100%29.94 "Hg5 mi
8:00 PM32 °FClear.10 mph93%29.93 "Hg9 mi
7:00 PM34 °FOvercast.12 mph93%29.90 "Hg9 mi
6:00 PM34 °FOvercast.12 mph100%29.88 "Hg9 mi
5:00 PM36 °FOvercast.12 mph93%29.85 "Hg12 mi
4:00 PM36 °FOvercast.10 mph93%29.83 "Hg12 mi
3:00 PM36 °FOvercast.9 mph100%29.81 "Hg12 mi
2:00 PM36 °FLow clouds.10 mph100%29.80 "Hg10 mi
1:49 PM36 °FLow clouds.9 mph100%29.80 "Hg10 mi
1:00 PM36 °FFog.10 mph100%29.79 "Hg8 mi
12:00 PM36 °FLow clouds.8 mph100%29.77 "Hg10 mi
11:00 AM34 °FFog.9 mph100%29.75 "Hg8 mi
10:00 AM34 °FFog.8 mph100%29.74 "Hg1 mi
9:45 AM34 °FFog.9 mph100%29.72 "Hg1 mi
9:00 AM34 °FFog.7 mph100%29.72 "Hg0 mi
Weather by CustomWeather, © 2014

See weather overviewHow to use our weather pages